Back to catalog

GEESAT 3-01

AliveCommunicationsLEO
NORAD 61011·PAYLOAD·🇨🇳 China

Launched Sep 5, 2024 from Taiyuan Satellite Launch Center

Loading…

Next Passes (next 24 hours)

TLE

FreshSource: Space-Track

Epoch: Sep 14, 2026, 14:37 UTC

1 61011U 24159A   26257.60925662  .00001426  00000-0  19429-3 0  9999
2 61011  50.0015  28.2336 0002737 226.0046 134.0667 14.84474048109961

Track GEESAT 3-01 in real time with AllMySat

Download on the App Store